Find Starlink 3682

NORAD ID: 52140 Int'l Des: 2022-029 Owner: SPXS Country: US Constellation: starlink operational
LEOCIRCULAR

Aktuelle Ansicht

3D-Globus wird geladen...

Über Starlink 3682

Beschreibung wird geladen...

Nächste Überflüge

Passes for default location (London). Set your location on the main map for personalized predictions.

Höhenverlauf

Loading altitude history...

Zweizeiliger Elementsatz

1 52140U 22029BE 26149.39602163 -.00000726 00000-0 -27550-4 0 9999
2 52140 53.2026 66.8072 0001718 57.9159 302.1999 15.08830096233128
Epoch: 29. Mai 2026 • Age: 19 hours

Aktueller Status

Höhe 544.1 km
Geschwindigkeit 7.60 km/s
Subsatellitenpunkt 48.45°N, 159.25°E
Startdatum 19. März 2022
Alter 4.1 years
Typ internet

Technische Details

Klassifizierung Payload
Masse 297.00 kg
Trockenmasse 275.00 kg
Gesamtmasse 297.00 kg
Länge 0.20 m
Durchmesser 2.80 m
Spannweite 9.00 m
Form Box + pan
Hersteller SPXS
Bus-Typ Starlink
Phasenstatus In Orbit
Besitzer/Staat SPXS/US

Most Searched